Kansas City International, MO

5:22 AM CDT on May 27, 2018 (GMT -0500)
Kansas City International

Weather History for KMCI - March, 2013

Change the Weather History Date:

Wednesday, March 20, 2013

  Actual Average Record
Temperature  
Mean Temperature 30 °F 46 °F  
Max Temperature 38 °F 57 °F 82 °F (1953)
Min Temperature 21 °F 35 °F 8 °F (1906)
Degree Days  
Heating Degree Days 35 19  
Month to date heating degree days 548 456  
Since 1 July heating degree days 4280 4501  
Cooling Degree Days 0 0  
Month to date cooling degree days 0 0  
Year to date cooling degree days 0 0  
Moisture  
Dew Point 12 °F    
Average Humidity 58    
Maximum Humidity 89    
Minimum Humidity 27    
Precipitation  
Precipitation 0.00 in 0.08 in 1.48 in (1962)
Month to date precipitation 1.40 1.40  
Year to date precipitation 4.29 3.93  
Snow  
Snow 0.00 in 0.10 in 7.30 in (2010)
Month to date snowfall T 1.5  
Since 1 July snowfall 25.2 17.7  
Snow Depth 0.00 in    
Sea Level Pressure  
Sea Level Pressure 30.30 in    
Wind  
Wind Speed 11 mph (NNW)    
Max Wind Speed 22 mph    
Max Gust Speed 33 mph    
Visibility 9 miles    
Events      
T = Trace of Precipitation, MM = Missing Value Source: NWS Daily Summary

Daily Weather History Graph

Daily Weather History Graph

Search for Another Location

Airport or City:

Astronomy

Mar. 20, 2013 Rise Set
Actual Time 7:21 AM CDT 7:31 PM CDT
Civil Twilight 6:55 AM CDT 7:57 PM CDT
Nautical Twilight 6:23 AM CDT 8:29 PM CDT
Astronomical Twilight 5:52 AM CDT 9:01 PM CDT
Moon 1:08 PM CDT (3/20) 3:00 AM CDT (3/20)
Length of Visible Light 13h 02m
Length of Day
12h 09m
First Quarter, 59% of the Moon is Illuminated
Mar 20
First Quarter
Mar 27
Full
Apr 2
Last Quarter
Apr 10
New
Apr 18
First Quarter

Hourly Weather History & Observations

Time (CDT) Temp. Windchill Dew Point Humidity Pressure Visibility Wind Dir Wind Speed Gust Speed Precip Events Conditions
12:48 AM 33.8 °F 27.0 °F 30.2 °F 87% 30.25 in 2.0 mi WNW 8.1 mph - N/A   Scattered Clouds
12:53 AM 33.1 °F 26.9 °F 30.9 °F 92% 30.27 in 2.0 mi WNW 6.9 mph - N/A   Scattered Clouds
1:00 AM 32.0 °F 25.6 °F 30.2 °F 93% 30.25 in 3.0 mi WNW 6.9 mph - N/A   Scattered Clouds
1:53 AM 33.1 °F 24.4 °F 27.0 °F 78% 30.29 in 10.0 mi North 11.5 mph - N/A   Partly Cloudy
2:53 AM 30.9 °F 20.7 °F 21.9 °F 69% 30.32 in 10.0 mi North 13.8 mph - N/A   Partly Cloudy
3:53 AM 28.9 °F 17.7 °F 16.0 °F 58% 30.32 in 10.0 mi NNW 15.0 mph 21.9 mph N/A   Partly Cloudy
4:53 AM 28.0 °F 18.6 °F 12.0 °F 51% 30.32 in 10.0 mi NNW 10.4 mph 19.6 mph N/A   Overcast
5:53 AM 27.0 °F 14.3 °F 12.0 °F 53% 30.36 in 10.0 mi NNW 17.3 mph 26.5 mph N/A   Overcast
6:53 AM 23.0 °F 8.7 °F 6.1 °F 48% 30.38 in 10.0 mi North 18.4 mph 26.5 mph 0.01 in   Scattered Clouds
7:53 AM 21.9 °F 11.7 °F 9.0 °F 58% 30.40 in 10.0 mi North 9.2 mph - N/A   Partly Cloudy
8:53 AM 24.1 °F 12.0 °F 9.0 °F 53% 30.41 in 10.0 mi NNW 13.8 mph 25.3 mph N/A   Clear
9:53 AM 25.0 °F 12.6 °F 7.0 °F 46% 30.41 in 10.0 mi NNW 15.0 mph - N/A   Clear
10:53 AM 26.1 °F 17.6 °F 9.0 °F 49% 30.42 in 10.0 mi NW 8.1 mph 16.1 mph N/A   Partly Cloudy
11:53 AM 28.9 °F 19.2 °F 9.0 °F 43% 30.41 in 10.0 mi NW 11.5 mph 21.9 mph N/A   Partly Cloudy
12:53 PM 30.9 °F 21.2 °F 8.1 °F 38% 30.39 in 10.0 mi NW 12.7 mph 21.9 mph N/A   Partly Cloudy
1:53 PM 33.1 °F 22.2 °F 9.0 °F 37% 30.35 in 10.0 mi NNW 17.3 mph 23.0 mph N/A   Partly Cloudy
2:53 PM 35.1 °F 26.4 °F 5.0 °F 28% 30.30 in 10.0 mi NW 12.7 mph 20.7 mph N/A   Partly Cloudy
3:53 PM 37.0 °F 28.1 °F 7.0 °F 29% 30.27 in 10.0 mi North 15.0 mph 23.0 mph N/A   Clear
4:53 PM 37.0 °F 29.8 °F 6.1 °F 28% 30.24 in 10.0 mi NW 10.4 mph - N/A   Clear
5:53 PM 37.0 °F 28.9 °F 7.0 °F 29% 30.22 in 10.0 mi NNW 12.7 mph - N/A   Partly Cloudy
6:53 PM 35.1 °F 27.9 °F 8.1 °F 33% 30.20 in 10.0 mi North 9.2 mph - N/A   Partly Cloudy
7:53 PM 30.0 °F 24.1 °F 7.0 °F 38% 30.19 in 10.0 mi North 5.8 mph - N/A   Partly Cloudy
8:53 PM 30.9 °F - 6.1 °F 35% 30.18 in 10.0 mi Calm Calm - N/A   Clear
9:53 PM 30.0 °F 25.2 °F 5.0 °F 35% 30.17 in 10.0 mi North 4.6 mph - N/A   Clear
10:53 PM 27.0 °F 21.6 °F 7.0 °F 43% 30.17 in 10.0 mi NE 4.6 mph - N/A   Clear
11:53 PM 27.0 °F 20.5 °F 8.1 °F 45% 30.15 in 10.0 mi ENE 5.8 mph - N/A   Scattered Clouds